Voltar ao catálogo

TJS-1

AtivoComunicaçõesGEO
NORAD 40892·PAYLOAD·🇨🇳 China

Lançado Sep 12, 2015 de Xichang Satellite Launch Center

Loading…

TLE

AtualizadoSource: Space-Track

Época: Sep 14, 2026, 15:49 UTC

1 40892U 15046A   26257.65950744 -.00000163  00000-0  00000-0 0  9992
2 40892   0.5482  84.0337 0003409  66.9684 235.0670  1.00273497 40464

Acompanhe TJS-1 em tempo real com AllMySat

Download on the App Store